• In Hungary
  • List of Countries
  • For 7 days
  • Water Temperature
  • Satellite Maps
  • Weather Map
  • News
  • Weather Widgets
  • user-avatar
    Login

    Hourly Weather Krasocin

    Today, 22 September, Saturday

    Time Temperature Precipitation Wind Pressure Humidity
    00:00 +19°C° 0 mm 5 mps 736 mmHg 63%
    01:00 +19°C° 0 mm 6 mps 737 mmHg 67%
    02:00 +16°C° 0.6 mm 6 mps 737 mmHg 72%
    03:00 +15°C° 0.6 mm 6 mps 738 mmHg 77%
    04:00 +13°C° 0.6 mm 6 mps 739 mmHg 82%
    05:00 +13°C° 0.4 mm 5 mps 740 mmHg 81%
    06:00 +13°C° 0.4 mm 5 mps 741 mmHg 80%
    07:00 +12°C° 0.4 mm 4 mps 741 mmHg 79%
    08:00 +13°C° 0 mm 4 mps 742 mmHg 73%
    09:00 +14°C° 0 mm 4 mps 742 mmHg 67%
    10:00 +14°C° 0 mm 5 mps 742 mmHg 61%
    11:00 +15°C° 0 mm 5 mps 742 mmHg 55%
    12:00 +16°C° 0 mm 5 mps 742 mmHg 49%
    13:00 +17°C° 0 mm 6 mps 742 mmHg 43%
    14:00 +17°C° 0 mm 5 mps 741 mmHg 44%
    15:00 +17°C° 0 mm 5 mps 741 mmHg 45%
    16:00 +17°C° 0 mm 5 mps 741 mmHg 45%
    17:00 +15°C° 0 mm 4 mps 741 mmHg 49%
    18:00 +14°C° 0 mm 3 mps 741 mmHg 53%
    19:00 +13°C° 0 mm 3 mps 742 mmHg 57%
    20:00 +14°C° 0 mm 2 mps 742 mmHg 57%
    21:00 +13°C° 0 mm 2 mps 742 mmHg 58%
    22:00 +13°C° 0 mm 2 mps 742 mmHg 59%
    23:00 +12°C° 0 mm 3 mps 742 mmHg 60%

    Tomorrow, 23 September, Sunday

    Time Temperature Precipitation Wind Pressure Humidity
    00:00 +12°C° 0 mm 3 mps 742 mmHg 62%
    01:00 +11°C° 0 mm 3 mps 742 mmHg 63%
    02:00 +11°C° 0 mm 3 mps 741 mmHg 65%
    03:00 +11°C° 0 mm 3 mps 741 mmHg 67%
    04:00 +10°C° 0 mm 3 mps 741 mmHg 68%
    05:00 +11°C° 0 mm 4 mps 741 mmHg 68%
    06:00 +11°C° 0 mm 4 mps 741 mmHg 68%
    07:00 +12°C° 0 mm 5 mps 741 mmHg 67%
    08:00 +13°C° 0 mm 5 mps 740 mmHg 64%
    09:00 +14°C° 0 mm 5 mps 740 mmHg 60%
    10:00 +15°C° 0 mm 5 mps 740 mmHg 56%
    11:00 +15°C° 0 mm 5 mps 740 mmHg 57%
    12:00 +15°C° 0 mm 5 mps 740 mmHg 57%
    13:00 +15°C° 0 mm 5 mps 739 mmHg 57%
    14:00 +15°C° 0 mm 4 mps 739 mmHg 61%
    15:00 +14°C° 0 mm 4 mps 738 mmHg 64%
    16:00 +14°C° 0 mm 4 mps 738 mmHg 68%
    17:00 +13°C° 0.3 mm 3 mps 737 mmHg 73%
    18:00 +13°C° 0.3 mm 3 mps 736 mmHg 78%
    19:00 +12°C° 0.3 mm 3 mps 735 mmHg 83%
    20:00 +12°C° 0.8 mm 4 mps 734 mmHg 84%
    21:00 +12°C° 0.8 mm 4 mps 733 mmHg 85%
    22:00 +12°C° 0.8 mm 5 mps 732 mmHg 85%
    23:00 +13°C° 2.8 mm 6 mps 730 mmHg 84%

    Day after tomorrow, 24 September, Monday

    Time Temperature Precipitation Wind Pressure Humidity
    00:00 +14°C° 2.8 mm 7 mps 728 mmHg 83%
    01:00 +15°C° 2.8 mm 8 mps 726 mmHg 82%
    02:00 +15°C° 2.3 mm 9 mps 726 mmHg 81%
    03:00 +13°C° 2.3 mm 9 mps 727 mmHg 80%
    04:00 +13°C° 2.3 mm 10 mps 727 mmHg 78%
    05:00 +11°C° 0.6 mm 10 mps 729 mmHg 79%
    06:00 +9°C° 0.6 mm 10 mps 731 mmHg 80%
    07:00 +7°C° 0.6 mm 11 mps 733 mmHg 81%
    08:00 +7°C° 0.2 mm 11 mps 734 mmHg 79%
    09:00 +8°C° 0.2 mm 11 mps 736 mmHg 76%
    10:00 +8°C° 0.2 mm 11 mps 738 mmHg 74%
    11:00 +9°C° 0.2 mm 11 mps 738 mmHg 69%
    12:00 +9°C° 0.2 mm 11 mps 739 mmHg 64%
    13:00 +9°C° 0.2 mm 11 mps 740 mmHg 60%
    14:00 +9°C° 0.1 mm 11 mps 740 mmHg 59%
    15:00 +9°C° 0.1 mm 10 mps 741 mmHg 57%
    16:00 +9°C° 0.1 mm 10 mps 741 mmHg 56%
    17:00 +8°C° 0.1 mm 9 mps 742 mmHg 60%
    18:00 +7°C° 0.1 mm 8 mps 743 mmHg 64%
    19:00 +8°C° 0.1 mm 7 mps 743 mmHg 68%
    20:00 +6°C° 0 mm 7 mps 744 mmHg 68%
    21:00 +7°C° 0 mm 6 mps 745 mmHg 68%
    22:00 +7°C° 0 mm 6 mps 745 mmHg 69%
    23:00 +6°C° 0 mm 5 mps 746 mmHg 70%

    25 September, Tuesday

    Time Temperature Precipitation Wind Pressure Humidity
    00:00 +6°C° 0 mm 5 mps 746 mmHg 71%
    01:00 +6°C° 0 mm 5 mps 747 mmHg 72%
    02:00 +5°C° 0 mm 5 mps 747 mmHg 73%
    03:00 +5°C° 0 mm 5 mps 747 mmHg 74%
    04:00 +3°C° 0 mm 5 mps 748 mmHg 75%
    05:00 +5°C° 0 mm 5 mps 748 mmHg 75%
    06:00 +5°C° 0 mm 5 mps 749 mmHg 74%
    07:00 +4°C° 0 mm 6 mps 749 mmHg 74%
    08:00 +7°C° 0 mm 6 mps 750 mmHg 65%
    09:00 +8°C° 0 mm 6 mps 751 mmHg 56%
    10:00 +10°C° 0 mm 7 mps 751 mmHg 47%
    11:00 +10°C° 0 mm 6 mps 751 mmHg 45%
    12:00 +11°C° 0 mm 6 mps 751 mmHg 42%
    13:00 +11°C° 0 mm 6 mps 751 mmHg 40%
    14:00 +11°C° 0 mm 6 mps 751 mmHg 41%
    15:00 +11°C° 0 mm 6 mps 751 mmHg 43%
    16:00 +10°C° 0 mm 6 mps 751 mmHg 44%
    17:00 +9°C° 0 mm 5 mps 751 mmHg 49%
    18:00 +8°C° 0 mm 4 mps 751 mmHg 53%
    19:00 +7°C° 0 mm 4 mps 752 mmHg 57%
    20:00 +7°C° 0 mm 4 mps 751 mmHg 58%
    21:00 +7°C° 0 mm 4 mps 751 mmHg 60%
    22:00 +7°C° 0 mm 4 mps 751 mmHg 61%
    23:00 +6°C° 0 mm 5 mps 751 mmHg 62%

    26 September, Wednesday

    Time Temperature Precipitation Wind Pressure Humidity
    00:00 +6°C° 0 mm 5 mps 751 mmHg 63%
    01:00 +6°C° 0 mm 5 mps 750 mmHg 64%
    02:00 +5°C° 0 mm 6 mps 750 mmHg 65%
    03:00 +5°C° 0 mm 6 mps 750 mmHg 67%
    04:00 +5°C° 0 mm 6 mps 750 mmHg 68%
    05:00 +5°C° 0 mm 7 mps 750 mmHg 69%
    06:00 +6°C° 0 mm 7 mps 749 mmHg 71%
    07:00 +6°C° 0 mm 7 mps 749 mmHg 72%
    08:00 +8°C° 0.1 mm 7 mps 749 mmHg 72%
    09:00 +9°C° 0.1 mm 7 mps 749 mmHg 73%
    10:00 +9°C° 0.1 mm 7 mps 750 mmHg 73%
    11:00 +10°C° 0.1 mm 6 mps 749 mmHg 73%
    12:00 +10°C° 0.1 mm 6 mps 749 mmHg 73%
    13:00 +12°C° 0.1 mm 5 mps 749 mmHg 73%
    14:00 +12°C° 0 mm 5 mps 749 mmHg 72%
    15:00 +12°C° 0 mm 5 mps 749 mmHg 71%
    16:00 +12°C° 0 mm 4 mps 749 mmHg 71%
    17:00 +11°C° 0 mm 3 mps 749 mmHg 74%
    18:00 +11°C° 0 mm 3 mps 750 mmHg 77%
    19:00 +10°C° 0 mm 2 mps 750 mmHg 81%
    20:00 +10°C° 0 mm 2 mps 750 mmHg 80%
    21:00 +10°C° 0 mm 2 mps 750 mmHg 80%
    22:00 +9°C° 0 mm 2 mps 750 mmHg 79%
    23:00 +9°C° 0 mm 2 mps 750 mmHg 80%

    27 September, Thursday

    Time Temperature Precipitation Wind Pressure Humidity
    00:00 +9°C° 0 mm 2 mps 749 mmHg 80%
    01:00 +9°C° 0 mm 3 mps 749 mmHg 81%
    02:00 +8°C° 0 mm 3 mps 749 mmHg 82%
    03:00 +8°C° 0 mm 3 mps 748 mmHg 82%
    04:00 +8°C° 0 mm 3 mps 748 mmHg 83%
    05:00 +8°C° 0 mm 3 mps 748 mmHg 79%
    06:00 +9°C° 0 mm 3 mps 748 mmHg 75%
    07:00 +8°C° 0 mm 4 mps 747 mmHg 72%
    08:00 +11°C° 0 mm 4 mps 747 mmHg 64%
    09:00 +13°C° 0 mm 4 mps 747 mmHg 56%
    10:00 +15°C° 0 mm 5 mps 746 mmHg 48%
    11:00 +16°C° 0 mm 5 mps 746 mmHg 45%
    12:00 +17°C° 0 mm 5 mps 745 mmHg 42%
    13:00 +19°C° 0 mm 5 mps 745 mmHg 38%
    14:00 +19°C° 0 mm 5 mps 744 mmHg 40%
    15:00 +19°C° 0 mm 5 mps 744 mmHg 42%
    16:00 +19°C° 0 mm 4 mps 743 mmHg 44%
    17:00 +17°C° 0 mm 4 mps 743 mmHg 47%
    18:00 +15°C° 0 mm 5 mps 743 mmHg 50%
    19:00 +14°C° 0 mm 5 mps 743 mmHg 53%
    20:00 +13°C° 0 mm 5 mps 743 mmHg 53%
    21:00 +13°C° 0 mm 5 mps 742 mmHg 54%
    22:00 +13°C° 0 mm 5 mps 742 mmHg 55%
    23:00 +12°C° 0 mm 5 mps 742 mmHg 57%
    Show more